www.pogodaiklimat.ru

Погода и климат >> Архив погоды >> Кипр >> Akrotiri


ПОГОДА в Akrotiri

  • Прогноз погоды в Akrotiri
  • Монитор погоды в Akrotiri
  • Климат города

АРХИВ ПОГОДЫ в Akrotiri

Время (UTC), дата Ветер
(напр.,м/с)
 
Видим.   Явления Облачность Т
(С)
Тd
(С)
f
(%)
Тe
(С)
Тes
(С)
Комфортность P
(гПа)
Po
(гПа)
Тmin
(С)
Tmax
(С)
R
(мм)
R24
(мм)
S
(см)
04 19.05 З 4 60 км в посл. час ливневой дождь 8/0
[Ac cast]
+20.2 +13.1 64 +22 +23 комфорт 1007.1 1004.0
05 19.05 СЗ 8 7000 м слабый ливневой дождь 9/0
[Ac cast Ci sp]
+23.3 +9.0 40 +25 +25 комфорт 1007.4 1004.4
06 19.05 З 8 40 км в посл. час ливневой дождь 9/0
[Ac cast]
+22.5 +10.9 48 +25 +25 комфорт 1008.2 1005.2 0.2
07 19.05 СЗ 11
{14}
60 км 9/0
[Ac trans]
+24.0 +9.5 40 +25 +25 комфорт 1007.8 1004.8
08 19.05 З 8
{14}
60 км 6/0
[Ac trans]
+23.8 +9.8 41 +25 +27 комфорт 1008.0 1005.0
09 19.05 З 9 60 км 6/0
[Ac trans]
+22.9 +12.5 52 +26 +27 жарко 1008.3 1005.3
10 19.05 З 9
{14}
60 км 3/1 1200 м
[Cu hum Ac trans]
+22.8 +14.0 58 +26 +28 жарко 1008.5 1005.5
11 19.05 З 9
{14}
60 км 1/1 840 м
[Cu hum Ac trans]
+22.5 +15.4 64 +26 +28 жарко 1008.7 1005.7
12 19.05 З 9
{14}
60 км 1/1 840 м
[Cu hum Ac trans Ci fib]
+22.4 +15.7 66 +26 +28 жарко 1008.9 1005.8
13 19.05 З 8 60 км 1/1 840 м
[Cu hum Ac trans Ci fib]
+22.1 +15.4 66 +26 +28 душно 1008.9 1005.8
14 19.05 З 8 8000 м в посл. час ливневой дождь 6/5 600 м
[Cb cap Ac trans]
+19.2 +15.5 79 +20 +21 1008.9 1005.9
15 19.05 З 6 50 км {ливн. осадки} 8/3 660 м
[Cb cap Ac trans]
+21.3 +16.0 72 +25 +25 комфорт 1008.7 1005.7
16 19.05 З 6 50 км в посл. час гроза 4/3 720 м
[Cu med, cong Ci ing]
+20.8 +16.4 76 +24 +24 комфорт 1008.9 1005.9
17 19.05 З 6 40 км осадки на расстоянии 4/3 600 м
[Cb cap Ci ing]
+20.0 +15.1 73 +22 +22 комфорт 1009.2 1006.1
18 19.05 З 6 45 км осадки на расстоянии {гроза, ливн. осадки} 3/3 600 м
[Cb cap Ci ing]
+19.7 +15.6 77 +22 +22 комфорт 1009.5 1006.4 1
19 19.05 З 6 4000 м ливневой дождь 6/4 660 м
[Cb cap Ac cuf Ci ing]
+18.8 +15.9 83 +19 +19 1010.1 1007.1
20 19.05 З 3 25 км в посл. час ливневой дождь 4/4 750 м
[Cb cap Ci ing]
+18.8 +16.2 85 +20 +20 1009.9 1006.9
21 19.05 З 4 30 км в посл. час ливневой дождь 3/3 600 м
[Cu Sc Ci ing]
+19.0 +16.4 85 +20 +20 1009.8 1006.8
22 19.05 З 4 25 км слабый ливневой дождь 3/3 750 м
[Cu Sc]
+19.0 +16.4 85 +20 +20 1009.7 1006.6
23 19.05 З 5 25 км в посл. час ливневой дождь 1/1 660 м
[Cu hum]
+19.6 +15.7 78 +21 +21 комфорт 1009.3 1006.3
00 20.05 З 5 25 км слабый ливневой дождь 4/4 600 м
[Cu med, cong Ac cuf Ci ing]
+19.4 +16.3 82 +21 +21 комфорт 1009.2 1006.1 2
01 20.05 З 5 25 км в посл. час ливневой дождь 4/4 420 м
[Cb cap Ci ing]
+19.4 +15.9 80 +21 +21 комфорт 1008.9 1005.9
02 20.05 З 5 25 км зарница 3/1 600 м
[Cb cap Ci ing]
+19.3 +15.6 79 +21 +21 комфорт 1008.9 1005.8
03 20.05 З 6 8000 м слабый ливневой дождь 5/4 600 м
[Cb cap Ci ing]
+19.3 +15.8 80 +21 +21 комфорт 1009.0 1005.9
04 20.05 З 8 25 км в посл. час ливневой дождь 4/4 600 м
[Cb cap]
+19.8 +15.2 75 +21 +22 комфорт 1009.5 1006.5
05 20.05 З 7 25 км 5/4 600 м
[Sc diur, vesp Ac trans]
+20.4 +15.1 72 +23 +23 комфорт 1010.0 1006.9
06 20.05 З 8 25 км 6/5 600 м
[Sc diur, vesp Ac trans]
+21.0 +15.6 71 +24 +25 комфорт 1010.0 1007.0 +18.2 2
07 20.05 З 9 25 км 3/3 600 м
[Sc diur, vesp Ac trans]
+21.2 +14.5 66 +24 +25 комфорт 1010.4 1007.3
08 20.05 З 9
{14}
30 км 1/1 600 м
[Cu med, cong]
+21.5 +13.3 60 +24 +26 комфорт 1010.6 1007.6
09 20.05 З 10
{15}
30 км 1/1 900 м
[Cu hum]
+21.7 +13.1 58 +24 +25 комфорт 1010.6 1007.6
10 20.05 З 11-16
{16}
30 км 1/1 1200 м
[Cu hum]
+21.9 +11.5 52 +24 +24 комфорт 1010.4 1007.3
11 20.05 З 12
{17}
30 км 1/1 1050 м
[Cb cap]
+22.3 +12.1 52 +25 +25 комфорт 1010.2 1007.2
12 20.05 З 10
{18}
30 км 1/1 1080 м
[Cu hum]
+21.6 +12.4 56 +24 +24 комфорт 1010.0 1007.0
13 20.05 З 11
{16}
30 км 1/1 1080 м
[Cu hum]
+21.0 +12.0 56 +23 +23 комфорт 1010.1 1007.0
14 20.05 З 9-15
{16}
30 км 1/1 900 м
[Cu med, cong]
+21.1 +11.1 53 +23 +23 комфорт 1010.4 1007.3
15 20.05 З 10
{15}
н/о н/о +20.6 +11.3 55 +22 +22 комфорт 1010.6 1007.5
16 20.05 З 9 30 км 1/1 900 м
[Cu hum Ac trans]
+20.0 +12.0 60 +21 +21 комфорт 1010.3 1007.2
17 20.05 З 7 30 км 4/3 840 м
[Sc Ci fib]
+19.5 +13.7 69 +21 +21 комфорт 1010.9 1007.8
18 20.05 З 6 30 км 3/3 840 м
[Sc]
+19.2 +13.2 68 +20 +20 1011.1 1008.1 +22.7
19 20.05 З 5 50 км 1/1 750 м
[Cb cap]
+19.0 +13.6 71 +20 +20 1011.4 1008.3
20 20.05 З 5 30 км 3/1 900 м
[Sc Ci ing]
+19.0 +14.0 73 +20 +20 1011.8 1008.8
21 20.05 З 4 25 км 1/1 1200 м
[Sc]
+18.9 +14.6 76 +20 +20 1011.5 1012.0
22 20.05 З 4 25 км 1/1 1200 м
[Sc]
+18.7 +15.0 79 +20 +20 1011.5 1008.4
23 20.05 СЗ 2 25 км 1/1 900 м
[Sc]
+17.8 +14.0 78 +19 +19 1011.1 1008.0
00 21.05 З 3 25 км 1/1 900 м
[Sc]
+17.7 +13.7 77 +18 +18 1010.8 1007.7
01 21.05 З 3 25 км ясно +17.5 +13.9 79 +18 +18 1010.6 1007.5
02 21.05 З 3 25 км ясно +17.2 +14.2 83 +17 +17 1010.6 1007.6
03 21.05 З 5 25 км 1/1 750 м
[Cu hum]
+18.0 +15.1 83 +18 +18 1010.7 1007.6
04 21.05 З 4 30 км 1/1 900 м
[Sc]
+18.4 +13.8 75 +19 +20 1011.0 1008.0
05 21.05 З 4 35 км 1/1 900 м
[Cu hum]
+20.1 +14.4 70 +22 +25 комфорт 1011.5 1008.4
06 21.05 З 5 30 км 1/1 900 м
[Cu hum]
+20.8 +15.6 72 +24 +28 комфорт 1011.8 1008.8 +17.2
07 21.05 З 6 н/о н/о +22.1 +15.5 66 +26 +26 душно 1012.0 1009.0
08 21.05 З 6 30 км 1/1 900 м
[Cu hum]
+22.2 +15.3 65 +26 +32 душно 1012.2 1009.1
09 21.05 З 8 30 км 1/1 900 м
[Cu hum]
+22.3 +14.7 62 +26 +30 жарко 1012.1 1009.0
10 21.05 З 10
{13}
40 км 1/1 960 м
[Cu hum]
+23.1 +15.4 62 +27 +28 душно 1012.0 1009.0
11 21.05 З 9
{13}
40 км 1/1 960 м
[Cu hum]
+23.3 +15.4 61 +28 +29 душно 1011.7 1008.7
12 21.05 З 10 40 км 1/1 960 м
[Cu hum]
+23.0 +15.3 62 +27 +28 душно 1011.6 1008.5
13 21.05 З 11
{15}
н/о н/о +22.4 +15.5 65 +26 +26 жарко 1011.2 1008.2
14 21.05 З 10
{16}
н/о н/о +21.9 +15.0 65 +25 +25 комфорт 1011.3 1008.3
15 21.05 0 н/о +21.5 +16.0 71 +46 +46 опасность
перегрева
1011.7 1008.6
16 21.05 З 7 35 км 1/1 1200 м
[Sc diur, vesp Ac trans Ci fib]
+21.1 +14.7 67 +24 +24 комфорт 1011.7 1008.7
17 21.05 0 н/о н/о +19.8 +16.3 80 1011.7 1008.6
18 21.05 З 4 35 км 1/1 1200 м
[Sc]
+19.5 +16.2 81 +21 +21 комфорт 1011.9 1008.8 +23.8
19 21.05 З 3 30 км 5/5 750 м
[Sc]
+19.5 +15.7 79 +22 +22 комфорт 1012.2 1009.1
20 21.05 З 2 30 км 3/3 600 м
[Sc]
+19.1 +15.3 79 +21 +21 комфорт 1012.2 1009.2
21 21.05 З 1 30 км 4/4 500 м
[Sc]
+18.7 +15.6 82 +21 +21 комфорт 1011.9 1008.8
22 21.05 З 2 30 км 3/1 600 м
[Sc Ci fib]
+18.5 +16.0 85 +20 +20 1011.6 1008.5
23 21.05 З 2 30 км ясно +17.9 +16.0 89 +18 +18 1011.0 1007.9
00 22.05 СЗ 1 н/о н/о +17.0 +15.1 89 +18 +18 1010.4 1007.4
01 22.05 СВ 1 30 км 4/4 600 м
[Sc]
+17.1 +14.1 83 +18 +18 1010.2 1007.1
02 22.05 СВ 1 30 км 3/3 750 м
[Sc]
+16.3 +13.3 82 +18 +18 1009.7 1006.6
03 22.05 С 1 20 км 6/6 600 м
[Sc]
+16.3 +13.5 83 +18 +18 1010.2 1007.1
04 22.05 С 1 25 км 6/3 600 м
[Cu hum Ac cast Ci ing]
+17.7 +14.3 80 +19 +20 1010.7 1007.6
05 22.05 С 2 25 км 8/1 600 м
[Cu Sc Ac cast Ci sp]
+19.5 +15.1 76 +22 +25 комфорт 1011.4 1008.4
06 22.05 С 2 25 км в посл. час ливневой дождь 9/1 600 м
[Cu hum Ac As Ci sp]
+20.4 +15.5 73 +24 +29 комфорт 1011.1 1008.1 0.0
07 22.05 ЮВ 2 30 км слабый ливневой дождь 10/3 600 м
[Cu med, cong Ac trans Ci fib]
+20.9 +16.0 74 +25 +30 комфорт 1011.0 1008.0
08 22.05 В 2 30 км в посл. час ливневой дождь 6/1 630 м
[Cu hum Ac trans Ci fib]
+22.5 +15.6 65 +26 +38 жарко 1011.0 1008.0
09 22.05 Ю 5 30 км {ливн. осадки} 8/1 660 м
[Cu hum Ac trans Ci fib]
+22.8 +16.0 65 +27 +34 душно 1010.9 1007.9
10 22.05 В 5 30 км 9/3 480 м
[Cu hum Ac As Ci fib]
+22.8 +16.8 69 +28 +32 душно 1010.4 1007.3
11 22.05 СВ 5 30 км в посл. час ливневой дождь 9/1 450 м
[Cu hum Ac As]
+21.5 +16.9 75 +25 +29 комфорт 1009.9 1006.9
12 22.05 СВ 5 30 км слабый дождь {ливн. осадки} 9/1 300 м
[Cu hum Ac As]
+20.7 +17.7 83 +24 +27 комфорт 1009.5 1006.4 0.0
13 22.05 В 6 35 км слабый дождь 9/3 600 м
[Cu Sc Ac As]
+20.5 +18.3 87 +24 +25 комфорт 1008.4 1005.3
14 22.05 СВ 6 20 км слабый дождь 10/4 300 м
[Frnb Ac As]
+19.7 +18.4 92 +22 +23 комфорт 1007.9 1004.8
15 22.05 В 6 25 км в посл. час дождь 9/1 420 м
[Cu hum Ac As]
+20.5 +18.3 87 +24 +24 комфорт 1007.5 1004.4
16 22.05 В 6 30 км 8/1 360 м
[Cu hum Ac cast]
+20.4 +18.2 87 +24 +24 комфорт 1007.2 1004.2
17 22.05 В 5 20 км 8/4 450 м
[Cb cap Ac trans]
+20.0 +17.8 87 +23 +23 комфорт 1007.2 1004.2
18 22.05 В 4 25 км слабый ливневой дождь 8/3 300 м
[Cu med, cong Ac trans]
+20.0 +18.1 89 +23 +23 комфорт 1007.5 1004.4 0.2
19 22.05 В 4 н/о н/о +19.5 +17.5 88 +22 +22 комфорт 1007.1 1004.0
20 22.05 Ю 3 25 км 3/3 300 м
[Cu hum]
+20.5 +18.4 88 +25 +25 комфорт 1007.1 1004.1
21 22.05 З 6 20 км {ливн. осадки} 3/3 360 м
[St]
+20.0 +17.8 87 +23 +23 комфорт 1007.1 1004.0
22 22.05 З 6 25 км 1/1 360 м
[St]
+19.4 +16.9 85 +21 +21 комфорт 1006.8 1003.8
23 22.05 З 5 25 км 1/1 360 м
[St]
+19.3 +16.3 83 +21 +21 комфорт 1006.8 1003.8
00 23.05 ЮЗ 4 25 км зарница 4/1 300 м
[Cu hum Ac trans]
+19.6 +16.9 84 +22 +22 комфорт 1006.2 1003.1
01 23.05 З 3 25 км 1/1 450 м
[St]
+19.2 +17.0 87 +21 +21 комфорт 1006.2 1003.1
02 23.05 З 1 25 км 3/3 400 м
[St]
+18.5 +17.2 92 +21 +21 комфорт 1006.7 1003.6
03 23.05 СЗ 2 н/о н/о +18.2 +16.4 89 +19 +19 1007.1 1004.0
04 23.05 СЗ 2 20 км 1/1 450 м
[St]
+18.6 +15.1 80 +20 +21 1007.7 1004.6
05 23.05 З 4 30 км 1/1 1200 м
[Cu med, cong Ci ing]
+20.2 +14.7 71 +23 +25 комфорт 1008.6 1005.5
06 23.05 З 8 40 км 1/1 1200 м
[Cu med, cong Ci ing]
+21.2 +13.1 60 +24 +25 комфорт 1008.8 1005.8 +18.2
07 23.05 З 10
{15}
40 км 1/1 750 м
[Cb cap]
+21.7 +13.5 60 +24 +25 комфорт 1009.5 1006.4
08 23.05 З 11
{15}
40 км 1/1 750 м
[Cb cap Ac trans]
+21.2 +13.8 63 +24 +24 комфорт 1009.8 1006.7
09 23.05 З 11-16
{16}
40 км 3/1 600 м
[Cb cap Ac trans Ci ing]
+22.3 +13.7 58 +25 +26 комфорт 1010.1 1007.1
10 23.05 З 11
{15}
60 км 3/3 600 м
[Cb cap Ac trans Ci ing]
+22.2 +11.2 50 +24 +25 комфорт 1010.6 1007.6
11 23.05 З 10-15
{17}
50 км 3/0
[Ac cuf Ci ing]
+22.6 +12.1 51 +25 +26 комфорт 1010.9 1007.9
12 23.05 З 10
{15}
50 км 3/1 900 м
[Cu med, cong Ac trans Ci ing]
+22.6 +14.2 59 +26 +27 жарко 1011.1 1008.1
13 23.05 З 10-15
{15}
50 км 3/1 900 м
[Cu med, cong Ac trans]
+22.1 +14.1 60 +25 +26 комфорт 1011.3 1008.2
14 23.05 З 9-14
{15}
50 км 1/0
[Ac cuf]
+21.8 +14.8 64 +25 +26 комфорт 1011.1 1008.0
15 23.05 З 9
{15}
50 км 1/0 2000 м
[Ac cuf]
+21.4 +15.1 67 +25 +25 комфорт 1011.7 1008.6
16 23.05 З 8
{13}
50 км 1/0
[Ac cuf]
+21.0 +15.6 71 +24 +24 комфорт 1011.9 1008.8
17 23.05 З 7
{13}
50 км ясно +20.3 +15.2 73 +23 +23 комфорт 1012.5 1009.4
18 23.05 З 6 50 км ясно +20.2 +14.2 68 +22 +22 комфорт 1013.1 1010.0 +23.5
19 23.05 З 4 50 км ясно +20.0 +13.3 65 +22 +22 комфорт 1014.0 1010.9
20 23.05 З 5 50 км ясно +19.6 +13.7 69 +21 +21 комфорт 1014.4 1011.3
21 23.05 З 5 50 км ясно +18.9 +13.0 69 +20 +20 1014.2 1011.2
22 23.05 З 4 50 км ясно +18.6 +13.8 74 +19 +19 1014.1 1011.1
23 23.05 З 4 50 км ясно +18.1 +12.2 68 +18 +18 1014.0 1010.9
00 24.05 СЗ 3 50 км ясно +16.8 +8.6 58 +17 +17 1013.8 1010.7
01 24.05 С 1 60 км ясно +16.2 +9.2 63 +17 +17 1013.6 1010.5
02 24.05 С 1 60 км ясно +15.7 +8.6 63 +16 +16 1013.9 1010.8
03 24.05 Ю 1 50 км ясно +14.6 +7.5 62 +15 +15 1014.4 1011.3
04 24.05 штиль 0 50 км ясно +17.2 +9.9 62 +17 +19 1014.9 1011.8
05 24.05 ЮВ 1 60 км ясно +21.3 +10.9 51 +23 +28 комфорт 1015.3 1012.3
06 24.05 В 3 н/о н/о +21.5 +13.7 61 +24 +24 комфорт 1015.6 1012.6 +14.5
07 24.05 В 2 60 км 1/1 2000 м
[Cu hum]
+22.8 +14.1 58 +26 +39 жарко 1015.6 1012.6
08 24.05 Ю 4 60 км 1/1 2000 м
[Cu hum]
+23.3 +12.7 51 +26 +37 жарко 1015.9 1012.8
09 24.05 ЮЗ 6 40 км 1/1 1500 м
[Cu hum]
+23.0 +15.9 64 +27 +34 душно 1016.0 1013.0
10 24.05 ЮЗ 7 30 км 1/1 840 м
[Cu hum]
+23.3 +16.5 66 +28 +34 душно 1016.0 1013.0
11 24.05 ЮЗ 6 30 км 1/1 900 м
[Cu hum]
+23.0 +15.9 64 +27 +35 душно 1016.2 1013.2
12 24.05 ЮЗ 7 30 км 1/1 570 м
[Cu hum Ac cuf]
+22.8 +15.8 65 +27 +32 душно 1016.1 1013.1
13 24.05 З 6 30 км 1/1 600 м
[Cu hum Ac cuf]
+23.4 +16.2 64 +28 +33 душно 1015.9 1012.8
14 24.05 З 5 30 км 1/1 1500 м
[Cu hum Ac cuf]
+23.3 +15.8 63 +28 +31 душно 1015.5 1012.5
15 24.05 З 5 30 км 1/1 1500 м
[Cu hum]
+22.5 +15.4 64 +26 +28 жарко 1015.1 1012.1
16 24.05 З 5 30 км 1/1 2000 м
[Cu hum]
+21.6 +16.5 73 +25 +26 комфорт 1015.2 1012.2
17 24.05 З 4 50 км 1/0
[Ac trans Ci fib]
+20.6 +16.8 79 +24 +24 комфорт 1015.3 1012.3
18 24.05 ЮЗ 4 50 км 1/0
[Ci fib]
+19.9 +16.8 82 +23 +23 комфорт 1015.5 1012.5 +24.6
19 24.05 З 3 50 км 3/0
[Ci fib]
+19.6 +17.0 85 +22 +22 комфорт 1015.9 1012.8
20 24.05 ЮЗ 4 40 км 4/0
[Ci fib]
+19.3 +17.1 87 +21 +21 комфорт 1016.1 1013.0
21 24.05 З 3 40 км 4/0
[Ci fib]
+19.2 +17.3 89 +21 +21 комфорт 1016.0 1012.9
22 24.05 З 2 40 км 4/0
[Ci fib]
+18.5 +17.1 92 +20 +20 1016.0 1012.9
23 24.05 З 2 40 км 1/0
[Ci fib]
+18.2 +16.0 87 +19 +19 1015.5 1012.5
00 25.05 З 3 40 км 3/0
[Ci sp]
+17.5 +15.1 86 +18 +18 1015.2 1012.1
01 25.05 З 2 30 км 3/3 300 м
[St Ci sp]
+17.4 +15.7 90 +18 +18 1015.0 1011.9
02 25.05 СВ 1 30 км 5/5 270 м
[St Ci sp]
+16.5 +12.2 76 +17 +17 1015.1 1012.0
03 25.05 СВ 2 40 км 1/1 300 м
[St Ci sp]
+16.2 +13.9 86 +17 +17 1015.2 1012.1
04 25.05 штиль 0 25 км 1/0
[Ci sp]
+17.5 +14.4 82 +17 +19 1015.3 1012.2
05 25.05 ЮЗ 1 40 км 3/0
[Ci fib]
+20.4 +16.2 77 +24 +29 комфорт 1015.5 1012.5
06 25.05 ЮЗ 3 30 км 4/0
[Ci fib]
+21.2 +15.9 72 +25 +32 комфорт 1015.7 1012.7 +16.1
07 25.05 Ю 2 30 км 8/0
[Ac cast Ci fib]
+22.7 +14.9 61 +26 +38 жарко 1015.6 1012.6
08 25.05 Ю 4 30 км 9/1 450 м
[Cu hum Ac cuf Ci fib]
+23.4 +15.1 60 +28 +33 душно 1016.2 1013.1
09 25.05 Ю 5 30 км 9/1 540 м
[Cu hum Ac cuf Cs]
+22.8 +16.7 68 +27 +33 душно 1016.6 1013.6
10 25.05 Ю 3 30 км 9/1 1500 м
[Cu hum Ac trans Cs]
+22.6 +15.8 65 +27 +35 душно 1016.4 1013.4
11 25.05 ЮЗ 4 25 км 9/1 1500 м
[Cu hum Cs]
+22.2 +15.5 66 +26 +36 душно 1016.2 1013.1
12 25.05 ЮЗ 4 25 км 9/1 1500 м
[Cu hum Cs]
+22.3 +15.3 65 +26 +34 жарко 1015.6 1012.6
13 25.05 З 4 30 км 10/1 1500 м
[Cu hum Cs]
+22.1 +15.8 67 +26 +32 душно 1015.3 1012.3
14 25.05 З 5 30 км 10/1 1500 м
[Cu hum Cs]
+22.0 +15.6 67 +26 +29 душно 1014.9 1011.8
15 25.05 З 5 30 км 9/1 1500 м
[Cu hum Cs]
+21.7 +16.4 72 +26 +27 душно 1014.5 1011.4
16 25.05 З 6 30 км 10/1 1500 м
[Cu hum As op Cs]
+21.0 +16.7 76 +25 +25 комфорт 1014.3 1011.3
17 25.05 З 4 40 км 9/0
[Ac trans Ci fib]
+20.5 +16.8 79 +24 +24 комфорт 1013.8 1010.8
18 25.05 З 2 40 км 8/0
[Ac trans Ci fib]
+20.3 +16.6 79 +24 +24 комфорт 1013.3 1010.2 +24.3
19 25.05 З 5 40 км 1/0
[Ac trans]
+19.9 +17.1 84 +22 +22 комфорт 1014.0 1010.9
20 25.05 З 4 40 км ясно +19.6 +16.9 84 +22 +22 комфорт 1014.0 1010.9
21 25.05 З 3 40 км ясно +19.1 +17.0 88 +21 +21 комфорт 1014.1 1011.0
22 25.05 З 3 40 км ясно +18.7 +16.6 88 +20 +20 1013.8 1010.8
23 25.05 З 1 40 км ясно +17.7 +15.6 88 +19 +19 1013.4 1010.3
00 26.05 СЗ 2 40 км ясно +16.2 +13.5 84 +17 +17 1013.3 1010.2
01 26.05 СЗ 2 н/о н/о +15.6 +11.0 74 +16 +16 1012.9 1009.8
02 26.05 СВ 2 50 км 1/0
[Ac trans]
+14.9 +10.0 72 +15 +15 1012.6 1009.5
03 26.05 СЗ 1 50 км 1/0
[Ac trans Ci sp]
+14.1 +8.6 69 +15 +15 1012.8 1009.6
04 26.05 СЗ 1 55 км 1/0
[Ac trans Ci fib]
+16.7 +10.9 69 +18 +20 1012.9 1009.8

 

Местоположение метеостанции Akrotiri (Кипр): широта 34.58 долгота 32.98 высота над уровнем моря 23 м.

В архиве по умолчанию представлена погода в Akrotiri за последнюю неделю. Архивные данные за месяц целиком и за предыдущие месяцы, начиная с января 2011 года, Вы можете получить, выбрав интересующий диапазон дат из раскрывающегося списка и нажав кнопку "Ввод!".

Внимание! Время в таблицах - всемирное. Для получения местного времени необходимо прибавить поправку, которая в Akrotiri равна 2 ч.

Смотрите также архив погоды в соседних городах и на ближайших метеорологических станциях:

Погода в Paphos (Кипр) (48 км)
Погода в Larnaca (Кипр) (68 км)
Погода в Athalassa (Кипр) (74 км)
Погода в Nicosia (Кипр) (79 км)
Погода в Akdeniz (Кипр) (80 км)
Погода в Kyrenia (Кипр) (91 км)
Погода в Gecitkale (Кипр) (100 км)
Погода в Lefkoniko (Кипр) (101 км)
Погода в Unknown (Турция) (104 км)
Погода в Famagusta (Кипр) (108 км)

Пояснения к столбцам:

Ветер - указаны скорость ветра в м/с - средняя за 10 мин, порывы в срок и между сроками (в фигурных скобках) и направление, откуда дует ветер: С - северный, СВ - северо-восточный, В - восточный, ЮВ - юго-восточный, Ю - южный, ЮЗ - юго-западный, З - западный, СЗ - северо-западный.
Видимость - горизонтальная дальность видимости в метрах или километрах. При видимости от 1 до 10 км при отсутствии осадков обычно наблюдается дымка, при ухудшении видимости до 1 км и менее - туман. В сухую погоду видимость может ухудшаться дымом, пылью или мглою.
Явления - указаны атмосферные явления, наблюдавшиеся в срок или в последний час перед сроком; фигурными скобками обозначены явления, наблюдавшиеся между сроками (за 1-3 часа до срока); квадратными скобками обозначены град или гололедные отложения с указанием их диаметра в мм.
Облачность - указаны через наклонную черту общая и нижняя облачность в баллах и высота нижней границы облаков в метрах; квадратными скобками обозначены формы облаков: Ci - перистые, Cs - перисто-слоистые, Cc - перисто-кучевые, Ac - высококучевые, As - высокослоистые, Sc - слоисто-кучевые, Ns - слоисто-дождевые, Cu - кучевые, Cb - кучево-дождевые. Подробнее классификацию облаков см. в Атласе облаков (PDF).
T - Температура воздуха - температура, измеренная на высоте 2 м над землей.
Td - Температура точки росы - температура, при понижении до которой содержащийся в воздухе водяной пар достигнет насыщения.
f - Относительная влажность воздуха - влажноcть воздуха, измеренная на высоте 2 м над землей.
Te - Эффективная температура - температура, которую ощущает одетый по сезону человек в тени. Характеристика душности погоды. При расчете учитывается влияние влажности воздуха и скорости ветра на теплоощущения человека.
Tes - Эффективная температура на солнце - температура, которую ощущает человек, с поправкой на солнечный нагрев. Характеристика знойности погоды. Зависит от высоты солнца над горизонтом, облачности и скорости ветра. Ночью, в пасмурную погоду, а также при ветре 12 м/с и более поправка равна нулю.
P - Атмосферное давление - приведенное к уровню моря атмосферное давление.
Po - Атмосферное давление - измеренное на уровне метеостанции атмосферное давление.
Tmin - Минимальная температура - минимум температуры воздуха на высоте 2 м над землей.
Tmax - Максимальная температура - максимум температуры воздуха на высоте 2 м над землей.
R - Количество осадков - Количество выпавших осадков за период времени, мм. При наведении курсора мыши на число - период времени, за который выпало указанное количество осадков.
R24 - Количество осадков - Количество выпавших осадков за 24 часа, мм.
S - Снежный покров - Высота снежного покрова, см. При наведении курсора мыши на число - состояние снежного покрова и степень покрытия местности в баллах.